Location: Grange Verzio
(44.5000°N, 6.9833°E)
Time: 17:53:07
(UTC+00:00)

Cosmos 2219 Rocket - Pass Details

Date: 27 September 2023
Orbit: 826 x 848 km, 71.0° (Epoch: 08 December)

Event Time Altitude Azimuth Distance (km) Brightness Sun altitude
Rises 19:38:32 0° 240° (WSW) 3,355 5.8 -24.8°
Reaches altitude 10° 19:41:21 10° 253° (WSW) 2,427 5.2 -25.2°
Maximum altitude 19:45:57 26° 309° (NW) 1,585 4.3 -26.0°
Drops below altitude 10° 19:50:35 10° 5° (N) 2,446 4.8 -26.7°
Sets 19:53:27 0° 19° (NNE) 3,387 5.4 -27.2°
